Location: Newark
(24.4667°N, 39.6000°E)
Time: 12:11:14
(UTC+00:00)

LightSail 2 - Visible Passes

Search period start: 15 November 2019 00:00
Search period end: 25 November 2019 00:00
Orbit: 701 x 726 km, 24.0° (Epoch: 14 November)

Date Brightness Start Highest point End Pass type
(mag) Time Alt. Az. Time Alt. Az. Time Alt. Az.
15 Nov 5.2 01:34:49 73° ESE 01:34:49 73° ESE 01:39:33 10° E visible
16 Nov 7.8 00:40:33 16° E 00:40:33 16° E 00:41:36 10° E visible
16 Nov 5.2 02:19:32 32° W 02:21:58 74° S 02:27:10 10° ESE visible
17 Nov 5.8 01:25:15 53° ESE 01:25:15 53° ESE 01:29:15 10° E visible
17 Nov 5.8 03:04:31 10° W 03:09:30 47° SSW 03:14:30 10° ESE visible
18 Nov 8.1 00:30:57 12° E 00:30:57 12° E 00:31:18 10° E visible
18 Nov 5.4 02:09:56 39° WSW 02:11:37 58° SSW 02:16:43 10° ESE visible
19 Nov 6.4 01:15:38 37° ESE 01:15:38 37° ESE 01:18:51 10° ESE visible
19 Nov 6.3 02:54:37 11° W 02:59:02 32° SSW 03:03:39 10° SE visible
20 Nov 5.8 02:00:19 38° SW 02:01:09 41° SSW 02:06:01 10° SE visible
21 Nov 7.1 01:06:01 25° SE 01:06:01 25° SE 01:08:16 10° ESE visible
21 Nov 6.9 02:45:00 11° WSW 02:48:29 21° SSW 02:52:18 10° SSE visible
22 Nov 6.4 01:50:42 27° SSW 01:50:42 27° SSW 01:54:58 10° SE visible
23 Nov 7.7 00:56:23 15° SE 00:56:23 15° SE 00:57:24 10° SE visible
23 Nov 7.3 02:35:50 10° SW 02:37:52 12° SSW 02:39:53 10° S visible
23 Nov 7.5 16:49:56 10° SSW 16:51:00 13° S 16:51:00 13° S visible
24 Nov 7.2 01:41:04 16° S 01:41:04 16° S 01:43:17 10° SSE visible
24 Nov 7.3 15:53:20 10° S 15:55:21 12° SSE 15:56:41 11° SE visible
